Location: Chippewa Lake
(41.0698°N, 81.9010°W)
Time: 18:01:02
(UTC+00:00)

X-37B - Visible Passes

Search period start: 19 January 2022 00:00
Search period end: 29 January 2022 00:00
Orbit: 334 x 337 km, 45.0° (Epoch: 11 January)

Date Brightness Start Highest point End Pass type
(mag) Time Alt. Az. Time Alt. Az. Time Alt. Az.
25 Jan 2.9 00:15:51 10° S 00:16:30 13° S 00:16:30 13° S visible
26 Jan 2.7 00:35:20 10° SW 00:36:23 19° SW 00:36:23 19° SW visible
26 Jan 2.4 23:21:19 10° S 23:23:13 17° SE 23:24:58 11° ESE visible
27 Jan 3.5 00:55:36 10° WSW 00:56:12 15° WSW 00:56:12 15° WSW visible
27 Jan 1.0 23:40:46 10° SW 23:43:28 41° SSE 23:44:42 25° E visible
